This is the latest recevied weather packets stored in our database for station/object KC1IUC-13. If no packets are shown the sender has not sent any weather packets the latest 10 day(s).
| Time | Temp. | Humidity | Pressure | Rain* | Wind** | Luminosity | Snow |
|---|---|---|---|---|---|---|---|
| 1788614284 | 16.11° C | 96% | 1007.3 hPa | 0 mm | - | 46 W/m² | - |
| 1788613744 | 16.11° C | 96% | 1007.6 hPa | 0 mm | - | 45 W/m² | - |
| 1788613204 | 15.56° C | 96% | 1007.6 hPa | 0 mm | - | 38 W/m² | - |
| 1788612844 | 15.56° C | 96% | 1007.6 hPa | 0 mm | - | 36 W/m² | - |
| 1788612304 | 15.56° C | 96% | 1007.6 hPa | 0 mm | - | 31 W/m² | - |
| 1788611764 | 15° C | 96% | 1008 hPa | 0 mm | - | 33 W/m² | - |
| 1788611224 | 15° C | 96% | 1007.6 hPa | 0 mm | - | 32 W/m² | - |
| 1788610684 | 14.44° C | 95% | 1008 hPa | 0 mm | - | 26 W/m² | - |
| 1788610144 | 14.44° C | 95% | 1007.6 hPa | 0 mm | - | 15 W/m² | - |
| 1788609604 | 13.89° C | 95% | 1007.6 hPa | 0 mm | - | 12 W/m² | - |
| 1788609244 | 13.89° C | 95% | 1007.6 hPa | 0 mm | - | 12 W/m² | - |
| 1788608704 | 13.89° C | 95% | 1007.6 hPa | 0 mm | - | 11 W/m² | - |
| 1788608164 | 13.33° C | 95% | 1007.3 hPa | 0 mm | - | 9 W/m² | - |
| 1788607624 | 13.33° C | 95% | 1007.3 hPa | 0 mm | - | 7 W/m² | - |
| 1788607084 | 13.89° C | 95% | 1007.3 hPa | 0 mm | - | 6 W/m² | - |
| 1788606544 | 13.89° C | 95% | 1007 hPa | 0 mm | - | 5 W/m² | - |
| 1788606004 | 13.89° C | 95% | 1007 hPa | 0 mm | - | 4 W/m² | - |
| 1788605644 | 13.89° C | 95% | 1007 hPa | 0 mm | - | 4 W/m² | - |
| 1788605104 | 13.89° C | 95% | 1007 hPa | 0 mm | - | 3 W/m² | - |
| 1788604564 | 13.89° C | 95% | 1007 hPa | 0 mm | - | 2 W/m² | - |
| 1788604024 | 13.89° C | 95% | 1006.6 hPa | 0 mm | - | 1 W/m² | - |
| 1788603484 | 13.89° C | 95% | 1006.6 hPa | 0 mm | - | 0 W/m² | - |
| 1788602944 | 13.89° C | 94% | 1006.6 hPa | 0 mm | - | 0 W/m² | - |
| 1788602404 | 13.89° C | 94% | 1006.6 hPa | 0 mm | - | 0 W/m² | - |
| 1788602044 | 13.89° C | 94% | 1006.6 hPa | 0 mm | - | 0 W/m² | - |
* Rain latest hour (hover to see other rain measurements)
** Current wind speed in m/s (hover to see current wind gust speed)